STARLINK-32347

Last updated on Sun Oct 06 2024 00:02:04 GMT+0000 (Coordinated Universal Time)

1 61010U 24158W 24279.58335648 -.01464094 00000+0 -36945-1 0 9991 2 61010 53.1594 327.2108 0001249 65.7727 104.6504 15.42305255 5951

Satellite not in orbit